Powrót do katalogu

STARLINK-35454

AktywnyŁącznośćVLEO
NORAD 66236·PAYLOAD·🇺🇸 United States

Wystrzelony Oct 29, 2025 z Cape Canaveral Space Force Station

Loading…

Następne Przeloty (najbliższe 24 godziny)

TLE

ŚwieżeSource: CelesTrak SupGP

Epoka: Sep 15, 2026, 03:14 UTC

1 66236C 25245C   26258.13520833  .00034826  00000+0  10288-2 0  2580
2 66236  53.1579 122.5898 0001206  75.7157 174.0858 15.34379288    15

Śledź STARLINK-35454 w czasie rzeczywistym z AllMySat

Download on the App Store